This is the latest recevied weather packets stored in our database for station/object HS5BOG-13. If no packets are shown the sender has not sent any weather packets the latest 10 day(s).
| Time | Temp. | Humidity | Pressure | Rain* | Wind** | Luminosity | Snow |
|---|---|---|---|---|---|---|---|
| 1777689687 | 29.44° C | 65% | 993.3 hPa | - | - | - | - |
| 1777689081 | 29.44° C | 64% | 993.4 hPa | - | - | - | - |
| 1777688476 | 29.44° C | 67% | 993.4 hPa | - | - | - | - |
| 1777687870 | 29.44° C | 65% | 993.3 hPa | - | - | - | - |
| 1777687265 | 28.89° C | 64% | 993.4 hPa | - | - | - | - |
| 1777686659 | 28.89° C | 65% | 993.3 hPa | - | - | - | - |
| 1777686053 | 28.89° C | 65% | 993.4 hPa | - | - | - | - |
| 1777685448 | 28.89° C | 67% | 993.2 hPa | - | - | - | - |
| 1777684842 | 28.89° C | 66% | 993.2 hPa | - | - | - | - |
| 1777684237 | 28.89° C | 67% | 993.2 hPa | - | - | - | - |
| 1777683631 | 28.89° C | 68% | 992.9 hPa | - | - | - | - |
| 1777683025 | 28.33° C | 68% | 992.8 hPa | - | - | - | - |
| 1777682420 | 28.33° C | 71% | 992.8 hPa | - | - | - | - |
| 1777681814 | 28.33° C | 71% | 992.7 hPa | - | - | - | - |
| 1777681209 | 28.33° C | 70% | 992.7 hPa | - | - | - | - |
| 1777680603 | 28.33° C | 70% | 992.6 hPa | - | - | - | - |
| 1777679997 | 28.33° C | 69% | 992.3 hPa | - | - | - | - |
| 1777679392 | 28.33° C | 69% | 992.1 hPa | - | - | - | - |
| 1777678786 | 28.33° C | 69% | 991.9 hPa | - | - | - | - |
| 1777678186 | 28.33° C | 69% | 991.8 hPa | - | - | - | - |
| 1777677574 | 28.33° C | 69% | 991.8 hPa | - | - | - | - |
| 1777676969 | 27.78° C | 69% | 991.6 hPa | - | - | - | - |
| 1777676363 | 27.78° C | 69% | 991.5 hPa | - | - | - | - |
| 1777675757 | 28.33° C | 69% | 991.4 hPa | - | - | - | - |
| 1777675152 | 28.33° C | 68% | 991.4 hPa | - | - | - | - |
* Rain since midnight (hover to see other rain measurements)
** Current wind speed in m/s (hover to see current wind gust speed)